Weather Roundup
Issued by NWS

Home | Current Version | Previous Version | Text Only | Print | Product List | Glossary On
Versions: 1 2 3 4 5 6 7 8 9 10 11 12 13 14 15 16 17 18 19 20 21 22 23 24 25 26 27 28 29 30 31 32 33 34 35 36 37 38 39 40 41 42 43 44 45 46 47 48 49 50
000
NZUS93 KARX 310810
HRRWXR

CURRENT HOURLY OBSERVATIONS ACROSS
MUCH OF THE UPPER MISSISSIPPI VALLEY
NATIONAL WEATHER SERVICE LA CROSSE WI
300 AM CDT TUE MAY 31 2016


...SOUTHEAST MINNESOTA...


CITY           SKY/WX    TMP DP  RH WIND       PRES   REMARKS
ROCHESTER      CLOUDY    62  57  83 SE9       29.88F
ROCHESTER/MAYO FAIR      64  57  77 E6        29.88F
WINONA         CLOUDY    70  55  60 E8        29.88F
AUSTIN         PTCLDY    63  57  82 S9        29.87F
ALBERT LEA     CLOUDY    66  55  68 S12G17    29.87F
DODGE CENTER   CLOUDY    64  57  77 SE9       29.87S
PRESTON        CLOUDY    61  54  78 SE8       29.91R
OWATONNA       LGT RAIN  66  55  68 SE10      29.85S
FARIBAULT      CLOUDY    66  57  72 S5        29.85F
$$

...ELSEWHERE IN MINNESOTA...


CITY           SKY/WX    TMP DP  RH WIND       PRES   REMARKS
MINNEAPOLIS    CLOUDY    68  57  68 SE10      29.85F
INTNL FALLS    CLOUDY    55  46  71 E14G22    29.94S
DULUTH         CLOUDY    48  42  80 E28G40    29.97F
RED WING       MOCLDY    70  55  60 SE13      29.86F
REDWOOD FALLS  HVY RAIN  63  59  87 SW10G24   29.85R FOG
MANKATO        CLOUDY    70  54  56 S10       29.83F
WORTHINGTON    RAIN      62  59  90 SW12      29.86F
FAIRMONT       CLOUDY    64  55  72 SE13      29.85F
$$

...SOUTHWEST WISCONSIN...


CITY           SKY/WX    TMP DP  RH WIND       PRES   REMARKS
LA CROSSE      PTCLDY    65  60  84 E7        29.91F
PRAIRIE DU CHI MOCLDY    61  60  96 E7        29.96S
BOSCOBEL       NOT AVBL
LONE ROCK      LGT RAIN  65  60  84 E6        30.00S
PLATTEVILLE    CLOUDY    64  62  94 NE5       29.97F
FORT MC COY    MOCLDY    61  61  99 E6        29.96F
MAUSTON-NEW LI CLOUDY    62  60  93 NW3       29.99F
VIROQUA        FAIR      62  60  93 E12       29.98R
WIS DELLS      CLOUDY    66  54  66 CALM      30.01F
$$

...ELSEWHERE IN WISCONSIN...


CITY           SKY/WX    TMP DP  RH WIND       PRES   REMARKS
MILWAUKEE      CLOUDY    62  56  80 E3        30.00S
MADISON        LGT RAIN  67  58  72 CALM      30.00R
GREEN BAY      CLOUDY    60  55  83 NE16      30.02R
EAU CLAIRE     LGT RAIN  64  59  83 SE7       29.95S
BLACK RVR FLS  LGT RAIN  62  62 100 E5        29.97F
MEDFORD        CLOUDY    62  53  70 S9        30.00R
WAUSAU         CLOUDY    60  55  83 E6        29.98S
WIS RAPIDS     CLOUDY    65  52  62 W5        30.02R
MARSHFIELD     CLOUDY    63  53  70 SW8       29.99S
RICE LAKE      CLOUDY    67  53  59 SE9       29.95R
$$

...NORTHEAST IOWA...


CITY           SKY/WX    TMP DP  RH WIND       PRES   REMARKS
WATERLOO       CLOUDY    62  58  86 SE8       29.92F
DUBUQUE        CLOUDY    63  60  90 NE8       29.97F
DECORAH        CLOUDY    63  59  88 SE7       29.92S
MASON CITY     NOT AVBL
CHARLES CITY   CLOUDY    63  61  94 SE13      29.92S
OELWEIN        CLOUDY    64  59  82 E8        29.94F
$$

...ELSEWHERE IN IOWA...


CITY           SKY/WX    TMP DP  RH WIND       PRES   REMARKS
DES MOINES     MOCLDY    69  59  70 SE7       29.92S
IOWA CITY      CLEAR     65  59  81 CALM      29.97S
FORT DODGE     CLOUDY    63  55  77 SE9       29.90F
MARSHALLTOWN   CLOUDY    62  59  90 SE9       29.93F
CEDAR RAPIDS   CLEAR     61  59  93 CALM      29.95S
$$

...NORTHERN ILLINOIS...


CITY           SKY/WX    TMP DP  RH WIND       PRES   REMARKS
CHICAGO-OHARE  CLOUDY    65  55  70 CALM      29.99S
CHICAGO-MIDWAY CLOUDY    69  55  60 E7        29.99S
MOLINE         CLOUDY    69  63  81 W3        29.94F
ROCKFORD       PTCLDY    65  56  72 CALM      29.99F
PEORIA         CLOUDY    71  61  70 CALM      29.96F
$$

NOTE: "FAIR" INDICATES FEW OR NO CLOUDS BELOW 12,000 FEET WITH NO
SIGNIFICANT WEATHER AND/OR OBSTRUCTIONS TO VISIBILITY. WIND
SPEEDS ARE IN MILES-PER-HOUR.




USA.gov is the U.S. government's official web portal to all federal, state and local government web resources and services.